Weather in Krasnyy Meliorator

Russia / Volgograd Oblast     50°01′34″N   46°05′42″E
temp.,
°C
wind,
m/s
gust,
m/s
humid.,
%
clouds,
%
prec.,
mm/h
press.,
hPa
HPBL,
m
5 august, thu
thu500:00+21nnw41065100 0.0 1015244
03:00+20n3871100 0.0 1016195
06:00+21n47645 0.0 1016242
09:00+27n5633100 0.0 10161523
12:00+29nnw5524100 0.0 10162139
15:00+30n4523100 0.0 10152367
18:00+29nne34250 0.0 10152295
21:00+24ne3335100 0.0 101537
6 august, fri
fri600:00+22nne4842100 0.0 1016133
03:00+20ne35456 0.0 101575
06:00+21ne36425 0.0 1016177
09:00+28ene33270 0.0 1016889
12:00+31ene43215 0.0 10152238
15:00+33ene44195 0.0 10142574
18:00+31ene55200 0.0 10131820
21:00+25ene511315 0.0 1014172
7 august, sat
sat700:00+22e511336 0.0 1014178
03:00+21e48345 0.0 1014124
06:00+22e48356 0.0 1014197
09:00+30ese562220 0.0 10141112
12:00+34ese5616100 0.0 10132166
15:00+36ese561399 0.0 10122614
18:00+34e4715100 0.0 1011286
21:00+28e4720100 0.0 101282
8 august, sun
sun800:00+26ese5122498 0.0 1012206
03:00+24ese5142696 0.0 1013234
06:00+26ese5132686 0.0 1013304
09:00+34ese6818100 0.0 1013813
12:00+37ese6714100 0.0 10122372
15:00+38e6712100 0.0 10102835
18:00+35ne5915100 0.0 1010245
21:00+32ne91319100 0.0 1010337
9 august, mon
mon900:00+30ene61121100 0.0 1009283
03:00+31e51118100 0.0 1008296
06:00+28e41026100 0.6 1007305
09:00+32s6829100 0.6 1007687
12:00+36ssw8102194 0.0 10071837
15:00+37sw8111998 0.0 10062776
18:00+36sw692123 0.0 10062478
21:00+30s4112721 0.0 1006212